Time,TemperatureF,DewpointF,PressureIn,WindDirection,WindDirectionDegrees,WindSpeedMPH,WindSpeedGustMPH,Humidity,HourlyPrecipIn,Conditions,Clouds,dailyrainin,SoftwareType,DateUTC
2013-02-23 00:00:00,31.5,10.4,30.74,West,281,5.0,8.0,41,0.00,CLR,,0.00,WeatherDisplay:10.37,2013-02-23 05:00:00,
2013-02-23 00:05:00,31.3,9.7,30.74,West,281,6.0,8.0,40,0.00,CLR,,0.00,WeatherDisplay:10.37,2013-02-23 05:05:00,
2013-02-23 00:10:00,31.5,9.9,30.74,WNW,287,3.0,6.0,40,0.00,CLR,,0.00,WeatherDisplay:10.37,2013-02-23 05:10:00,
2013-02-23 00:15:00,31.3,9.7,30.74,WNW,285,5.0,6.0,40,0.00,CLR,,0.00,WeatherDisplay:10.37,2013-02-23 05:15:00,
2013-02-23 00:20:00,31.3,9.2,30.74,WNW,289,3.0,8.0,39,0.00,CLR,,0.00,WeatherDisplay:10.37,2013-02-23 05:20:00,
2013-02-23 00:25:00,31.3,8.6,30.74,WNW,295,3.0,6.0,38,0.00,CLR,,0.00,WeatherDisplay:10.37,2013-02-23 05:25:00,
2013-02-23 00:30:00,31.1,7.2,30.74,WNW,286,5.0,8.0,36,0.00,CLR,,0.00,WeatherDisplay:10.37,2013-02-23 05:30:00,
2013-02-23 00:35:00,31.1,6.0,30.74,WNW,284,5.0,6.0,34,0.00,CLR,,0.00,WeatherDisplay:10.37,2013-02-23 05:35:00,
2013-02-23 00:40:00,31.1,3.9,30.74,WNW,291,5.0,10.0,31,0.00,CLR,,0.00,WeatherDisplay:10.37,2013-02-23 05:40:00,
2013-02-23 00:45:00,31.1,4.6,30.74,WNW,288,3.0,8.0,32,0.00,CLR,,0.00,WeatherDisplay:10.37,2013-02-23 05:45:00,
2013-02-23 00:50:00,31.1,5.3,30.74,West,277,0.0,6.0,33,0.00,CLR,,0.00,WeatherDisplay:10.37,2013-02-23 05:50:00,
2013-02-23 00:55:00,31.1,4.6,30.74,West,273,5.0,8.0,32,0.00,CLR,,0.00,WeatherDisplay:10.37,2013-02-23 05:55:00,
2013-02-23 01:00:00,31.0,3.8,30.74,WNW,287,6.0,8.0,31,0.00,CLR,,0.00,WeatherDisplay:10.37,2013-02-23 06:00:00,
2013-02-23 01:05:00,31.0,3.9,30.74,WNW,289,3.0,8.0,31,0.00,CLR,,0.00,WeatherDisplay:10.37,2013-02-23 06:05:00,
2013-02-23 01:10:00,30.9,3.8,30.74,WNW,283,5.0,8.0,31,0.00,CLR,,0.00,WeatherDisplay:10.37,2013-02-23 06:10:00,
2013-02-23 01:15:00,30.7,3.6,30.74,WNW,285,5.0,7.0,31,0.00,CLR,,0.00,WeatherDisplay:10.37,2013-02-23 06:15:00,
2013-02-23 01:20:00,30.6,3.5,30.74,WNW,285,6.0,10.0,31,0.00,CLR,,0.00,WeatherDisplay:10.37,2013-02-23 06:20:00,
2013-02-23 01:25:00,30.4,2.6,30.74,WNW,293,5.0,10.0,30,0.00,CLR,,0.00,WeatherDisplay:10.37,2013-02-23 06:25:00,
2013-02-23 01:30:00,30.2,3.1,30.74,WNW,300,5.0,8.0,31,0.00,CLR,,0.00,WeatherDisplay:10.37,2013-02-23 06:30:00,
2013-02-23 01:35:00,30.2,2.4,30.74,WNW,289,5.0,8.0,30,0.00,CLR,,0.00,WeatherDisplay:10.37,2013-02-23 06:35:00,
2013-02-23 01:40:00,30.0,2.3,30.74,WNW,282,3.0,7.0,30,0.00,CLR,,0.00,WeatherDisplay:10.37,2013-02-23 06:40:00,
2013-02-23 01:45:00,30.0,0.8,30.74,WNW,282,3.0,7.0,28,0.00,CLR,,0.00,WeatherDisplay:10.37,2013-02-23 06:45:00,
2013-02-23 01:50:00,30.0,2.3,30.74,West,273,5.0,6.0,30,0.00,CLR,,0.00,WeatherDisplay:10.37,2013-02-23 06:50:00,
2013-02-23 01:55:00,29.8,2.1,30.74,West,272,3.0,6.0,30,0.00,CLR,,0.00,WeatherDisplay:10.37,2013-02-23 06:55:00,
2013-02-23 02:00:00,29.8,0.6,30.74,West,273,5.0,9.0,28,0.00,CLR,,0.00,WeatherDisplay:10.37,2013-02-23 07:00:00,
2013-02-23 02:05:00,29.8,-1.8,30.74,West,270,6.0,9.0,25,0.00,CLR,,0.00,WeatherDisplay:10.37,2013-02-23 07:05:00,
2013-02-23 02:10:00,29.8,-1.8,30.74,West,262,5.0,9.0,25,0.00,CLR,,0.00,WeatherDisplay:10.37,2013-02-23 07:10:00,
2013-02-23 02:15:00,29.8,-3.6,30.74,WSW,253,7.0,11.0,23,0.00,CLR,,0.00,WeatherDisplay:10.37,2013-02-23 07:15:00,
2013-02-23 02:20:00,29.7,-3.7,30.74,West,266,5.0,8.0,23,0.00,CLR,,0.00,WeatherDisplay:10.37,2013-02-23 07:20:00,
2013-02-23 02:25:00,29.8,-3.6,30.74,West,265,5.0,11.0,23,0.00,CLR,,0.00,WeatherDisplay:10.37,2013-02-23 07:25:00,
2013-02-23 02:30:00,29.7,-3.7,30.74,WSW,256,5.0,8.0,23,0.00,CLR,,0.00,WeatherDisplay:10.37,2013-02-23 07:30:00,
2013-02-23 02:35:00,29.5,-3.8,30.74,West,263,5.0,8.0,23,0.00,CLR,,0.00,WeatherDisplay:10.37,2013-02-23 07:35:00,
2013-02-23 02:40:00,29.5,-2.1,30.74,West,263,5.0,8.0,25,0.00,CLR,,0.00,WeatherDisplay:10.37,2013-02-23 07:40:00,
2013-02-23 02:45:00,29.5,-2.1,30.74,WSW,255,3.0,8.0,25,0.00,CLR,,0.00,WeatherDisplay:10.37,2013-02-23 07:45:00,
2013-02-23 02:50:00,29.5,-2.1,30.74,WSW,254,7.0,9.0,25,0.00,CLR,,0.00,WeatherDisplay:10.37,2013-02-23 07:50:00,
2013-02-23 02:55:00,29.5,-3.8,30.74,West,259,6.0,8.0,23,0.00,CLR,,0.00,WeatherDisplay:10.37,2013-02-23 07:55:00,
2013-02-23 03:05:00,29.3,-2.2,30.74,WSW,254,6.0,8.0,25,0.00,CLR,,0.00,WeatherDisplay:10.37,2013-02-23 08:05:00,
2013-02-23 03:10:00,29.1,-2.4,30.74,WSW,257,5.0,6.0,25,0.00,CLR,,0.00,WeatherDisplay:10.37,2013-02-23 08:10:00,
2013-02-23 03:15:00,29.2,-2.3,30.74,WSW,258,5.0,8.0,25,0.00,CLR,,0.00,WeatherDisplay:10.37,2013-02-23 08:15:00,
2013-02-23 03:20:00,29.1,-2.4,30.74,WSW,257,6.0,9.0,25,0.00,CLR,,0.00,WeatherDisplay:10.37,2013-02-23 08:20:00,
2013-02-23 03:25:00,29.0,-3.3,30.74,WSW,254,6.0,8.0,24,0.00,CLR,,0.00,WeatherDisplay:10.37,2013-02-23 08:25:00,
2013-02-23 03:30:00,29.1,-2.4,30.74,WSW,254,5.0,6.0,25,0.00,CLR,,0.00,WeatherDisplay:10.37,2013-02-23 08:30:00,
2013-02-23 03:35:00,28.9,-2.5,30.74,WSW,249,7.0,10.0,25,0.00,CLR,,0.00,WeatherDisplay:10.37,2013-02-23 08:35:00,
2013-02-23 03:40:00,28.9,-2.5,30.74,WSW,249,6.0,8.0,25,0.00,CLR,,0.00,WeatherDisplay:10.37,2013-02-23 08:40:00,
2013-02-23 03:45:00,28.9,-2.5,30.74,WSW,248,7.0,8.0,25,0.00,CLR,,0.00,WeatherDisplay:10.37,2013-02-23 08:45:00,
2013-02-23 03:50:00,28.9,-2.5,30.74,WSW,247,6.0,9.0,25,0.00,CLR,,0.00,WeatherDisplay:10.37,2013-02-23 08:50:00,
2013-02-23 03:55:00,28.9,-2.5,30.74,WSW,254,6.0,9.0,25,0.00,CLR,,0.00,WeatherDisplay:10.37,2013-02-23 08:55:00,
2013-02-23 04:00:00,28.9,-2.5,30.74,WSW,255,6.0,12.0,25,0.00,CLR,,0.00,WeatherDisplay:10.37,2013-02-23 09:00:00,
2013-02-23 04:05:00,28.8,-2.7,30.74,WSW,258,7.0,11.0,25,0.00,CLR,,0.00,WeatherDisplay:10.37,2013-02-23 09:05:00,
2013-02-23 04:10:00,28.8,-2.7,30.74,WSW,253,6.0,10.0,25,0.00,CLR,,0.00,WeatherDisplay:10.37,2013-02-23 09:10:00,
2013-02-23 04:15:00,28.6,-3.7,30.74,WSW,256,7.0,9.0,24,0.00,CLR,,0.00,WeatherDisplay:10.37,2013-02-23 09:15:00,
2013-02-23 04:20:00,28.6,-4.6,30.74,WSW,255,6.0,9.0,23,0.00,CLR,,0.00,WeatherDisplay:10.37,2013-02-23 09:20:00,
2013-02-23 04:25:00,28.4,-3.0,30.74,WSW,253,5.0,11.0,25,0.00,CLR,,0.00,WeatherDisplay:10.37,2013-02-23 09:25:00,
2013-02-23 04:30:00,28.2,-3.2,30.74,WSW,257,7.0,9.0,25,0.00,CLR,,0.00,WeatherDisplay:10.37,2013-02-23 09:30:00,
2013-02-23 04:35:00,27.9,-2.6,30.74,WSW,256,6.0,10.0,26,0.00,CLR,,0.00,WeatherDisplay:10.37,2013-02-23 09:35:00,
2013-02-23 04:40:00,27.8,-2.7,30.74,WSW,248,7.0,11.0,26,0.00,CLR,,0.00,WeatherDisplay:10.37,2013-02-23 09:40:00,
2013-02-23 04:50:00,27.2,-3.2,30.74,WSW,258,6.0,8.0,26,0.00,CLR,,0.00,WeatherDisplay:10.37,2013-02-23 09:50:00,
2013-02-23 04:55:00,27.0,-3.4,30.74,WSW,254,5.0,8.0,26,0.00,CLR,,0.00,WeatherDisplay:10.37,2013-02-23 09:55:00,
2013-02-23 05:00:00,26.9,-3.5,30.74,WSW,250,5.0,6.0,26,0.00,CLR,,0.00,WeatherDisplay:10.37,2013-02-23 10:00:00,
2013-02-23 05:05:00,26.6,-3.7,30.74,WSW,251,5.0,6.0,26,0.00,CLR,,0.00,WeatherDisplay:10.37,2013-02-23 10:05:00,
2013-02-23 05:10:00,27.0,-1.9,30.74,WSW,251,5.0,6.0,28,0.00,CLR,,0.00,WeatherDisplay:10.37,2013-02-23 10:10:00,
2013-02-23 05:15:00,26.8,-2.0,30.74,WSW,251,5.0,6.0,28,0.00,CLR,,0.00,WeatherDisplay:10.37,2013-02-23 10:15:00,
2013-02-23 05:20:00,27.0,0.3,30.74,WSW,249,7.0,9.0,31,0.00,CLR,,0.00,WeatherDisplay:10.37,2013-02-23 10:20:00,
2013-02-23 05:30:00,27.0,-3.4,30.74,WSW,241,6.0,9.0,26,0.00,CLR,,0.00,WeatherDisplay:10.37,2013-02-23 10:30:00,
2013-02-23 05:35:00,26.9,-2.7,30.74,WSW,245,5.0,8.0,27,0.00,CLR,,0.00,WeatherDisplay:10.37,2013-02-23 10:35:00,
2013-02-23 05:40:00,26.6,-3.7,30.74,WSW,253,6.0,10.0,26,0.00,CLR,,0.00,WeatherDisplay:10.37,2013-02-23 10:40:00,
2013-02-23 05:45:00,26.4,-1.6,30.74,WSW,251,7.0,8.0,29,0.00,CLR,,0.00,WeatherDisplay:10.37,2013-02-23 10:45:00,
2013-02-23 05:50:00,26.4,-1.6,30.74,WSW,245,5.0,8.0,29,0.00,CLR,,0.00,WeatherDisplay:10.37,2013-02-23 10:50:00,
2013-02-23 05:55:00,26.1,-4.2,30.74,WSW,251,7.0,8.0,26,0.00,CLR,,0.00,WeatherDisplay:10.37,2013-02-23 10:55:00,
2013-02-23 06:00:00,25.9,-2.1,30.74,WSW,250,6.0,8.0,29,0.00,CLR,,0.00,WeatherDisplay:10.37,2013-02-23 11:00:00,
2013-02-23 06:05:00,25.9,-2.1,30.74,WSW,249,7.0,9.0,29,0.00,CLR,,0.00,WeatherDisplay:10.37,2013-02-23 11:05:00,
2013-02-23 06:10:00,26.1,-1.9,30.74,WSW,248,6.0,10.0,29,0.00,CLR,,0.00,WeatherDisplay:10.37,2013-02-23 11:10:00,
2013-02-23 06:15:00,26.2,-4.1,30.74,WSW,248,7.0,10.0,26,0.00,CLR,,0.00,WeatherDisplay:10.37,2013-02-23 11:15:00,
2013-02-23 06:20:00,26.4,-3.9,30.74,WSW,252,6.0,9.0,26,0.00,CLR,,0.00,WeatherDisplay:10.37,2013-02-23 11:20:00,
2013-02-23 06:25:00,26.4,-3.9,30.74,WSW,256,6.0,9.0,26,0.00,CLR,,0.00,WeatherDisplay:10.37,2013-02-23 11:25:00,
2013-02-23 06:30:00,26.4,-3.9,30.74,WSW,255,6.0,9.0,26,0.00,CLR,,0.00,WeatherDisplay:10.37,2013-02-23 11:30:00,
2013-02-23 06:35:00,26.4,-3.9,30.74,WSW,254,7.0,9.0,26,0.00,CLR,,0.00,WeatherDisplay:10.37,2013-02-23 11:35:00,
2013-02-23 06:40:00,26.4,-3.9,30.74,WSW,245,7.0,9.0,26,0.00,CLR,,0.00,WeatherDisplay:10.37,2013-02-23 11:40:00,
2013-02-23 06:45:00,26.4,-1.6,30.74,WSW,248,7.0,10.0,29,0.00,CLR,,0.00,WeatherDisplay:10.37,2013-02-23 11:45:00,
2013-02-23 06:50:00,26.2,-1.8,30.74,WSW,249,6.0,8.0,29,0.00,CLR,,0.00,WeatherDisplay:10.37,2013-02-23 11:50:00,
2013-02-23 07:00:00,26.0,-2.0,30.74,WSW,252,6.0,8.0,29,0.00,CLR,,0.00,WeatherDisplay:10.37,2013-02-23 12:00:00,
2013-02-23 07:05:00,25.4,-1.7,30.74,WSW,246,5.0,9.0,30,0.00,CLR,,0.00,WeatherDisplay:10.37,2013-02-23 12:05:00,
2013-02-23 07:10:00,25.1,-1.3,30.74,WSW,250,5.0,8.0,31,0.00,CLR,,0.00,WeatherDisplay:10.37,2013-02-23 12:10:00,
2013-02-23 07:15:00,24.7,-1.0,30.74,WSW,250,7.0,8.0,32,0.00,CLR,,0.00,WeatherDisplay:10.37,2013-02-23 12:15:00,
2013-02-23 07:20:00,24.4,-1.3,30.74,WSW,248,6.0,8.0,32,0.00,CLR,,0.00,WeatherDisplay:10.37,2013-02-23 12:20:00,
2013-02-23 07:25:00,24.3,-0.8,30.74,WSW,246,6.0,8.0,33,0.00,CLR,,0.00,WeatherDisplay:10.37,2013-02-23 12:25:00,
2013-02-23 07:30:00,24.1,-0.9,30.74,WSW,246,5.0,6.0,33,0.00,CLR,,0.00,WeatherDisplay:10.37,2013-02-23 12:30:00,
2013-02-23 07:35:00,23.9,-1.1,30.74,WSW,247,5.0,6.0,33,0.00,CLR,,0.00,WeatherDisplay:10.37,2013-02-23 12:35:00,
2013-02-23 07:40:00,23.9,-1.1,30.74,WSW,246,5.0,8.0,33,0.00,CLR,,0.00,WeatherDisplay:10.37,2013-02-23 12:40:00,
2013-02-23 07:45:00,23.9,-1.1,30.74,WSW,245,6.0,8.0,33,0.00,CLR,,0.00,WeatherDisplay:10.37,2013-02-23 12:45:00,
2013-02-23 07:50:00,24.2,-0.9,30.74,WSW,246,6.0,6.0,33,0.00,CLR,,0.00,WeatherDisplay:10.37,2013-02-23 12:50:00,
2013-02-23 07:55:00,24.4,-0.7,30.74,WSW,247,5.0,6.0,33,0.00,CLR,,0.00,WeatherDisplay:10.37,2013-02-23 12:55:00,
2013-02-23 08:00:00,24.6,-0.4,30.74,WSW,249,5.0,8.0,33,0.00,CLR,,0.00,WeatherDisplay:10.37,2013-02-23 13:00:00,
2013-02-23 08:05:00,24.8,-0.9,30.74,WSW,246,3.0,6.0,32,0.00,CLR,,0.00,WeatherDisplay:10.37,2013-02-23 13:05:00,
2013-02-23 08:15:00,25.4,-1.1,30.74,WSW,257,6.0,8.0,31,0.00,CLR,,0.00,WeatherDisplay:10.37,2013-02-23 13:15:00,
2013-02-23 08:20:00,25.7,-0.9,30.74,WSW,254,5.0,7.0,31,0.00,CLR,,0.00,WeatherDisplay:10.37,2013-02-23 13:20:00,
2013-02-23 08:25:00,25.7,-0.8,30.74,WSW,247,6.0,6.0,31,0.00,CLR,,0.00,WeatherDisplay:10.37,2013-02-23 13:25:00,
2013-02-23 08:30:00,25.9,-1.4,30.74,WSW,246,5.0,8.0,30,0.00,CLR,,0.00,WeatherDisplay:10.37,2013-02-23 13:30:00,
2013-02-23 08:35:00,26.1,-1.9,30.74,WSW,253,7.0,9.0,29,0.00,CLR,,0.00,WeatherDisplay:10.37,2013-02-23 13:35:00,
2013-02-23 08:45:00,26.6,-3.7,30.74,WSW,248,6.0,8.0,26,0.00,CLR,,0.00,WeatherDisplay:10.37,2013-02-23 13:45:00,
2013-02-23 08:50:00,27.0,-3.4,30.74,WSW,245,6.0,6.0,26,0.00,CLR,,0.00,WeatherDisplay:10.37,2013-02-23 13:50:00,
2013-02-23 08:55:00,27.1,-5.0,30.74,WSW,247,6.0,8.0,24,0.00,CLR,,0.00,WeatherDisplay:10.37,2013-02-23 13:55:00,
2013-02-23 09:00:00,27.6,-2.9,30.74,WSW,242,5.0,8.0,26,0.00,CLR,,0.00,WeatherDisplay:10.37,2013-02-23 14:00:00,
2013-02-23 09:10:00,27.9,-5.2,30.74,WSW,249,6.0,8.0,23,0.00,CLR,,0.00,WeatherDisplay:10.37,2013-02-23 14:10:00,
2013-02-23 09:15:00,28.2,-5.0,30.74,WSW,257,5.0,7.0,23,0.00,CLR,,0.00,WeatherDisplay:10.37,2013-02-23 14:15:00,
2013-02-23 09:20:00,28.2,-4.9,30.74,West,272,3.0,6.0,23,0.00,CLR,,0.00,WeatherDisplay:10.37,2013-02-23 14:20:00,
2013-02-23 09:25:00,28.2,-4.9,30.74,West,264,5.0,8.0,23,0.00,CLR,,0.00,WeatherDisplay:10.37,2013-02-23 14:25:00,
2013-02-23 09:30:00,28.4,-4.8,30.74,WSW,250,7.0,8.0,23,0.00,CLR,,0.00,WeatherDisplay:10.37,2013-02-23 14:30:00,
2013-02-23 09:35:00,28.5,-4.7,30.74,WSW,254,7.0,8.0,23,0.00,CLR,,0.00,WeatherDisplay:10.37,2013-02-23 14:35:00,
2013-02-23 09:40:00,29.0,-4.3,30.74,WSW,249,7.0,8.0,23,0.00,CLR,,0.00,WeatherDisplay:10.37,2013-02-23 14:40:00,
2013-02-23 09:45:00,29.4,-3.9,30.74,WSW,248,5.0,8.0,23,0.00,CLR,,0.00,WeatherDisplay:10.37,2013-02-23 14:45:00,
2013-02-23 09:50:00,29.4,-3.9,30.74,WSW,250,6.0,8.0,23,0.00,CLR,,0.00,WeatherDisplay:10.37,2013-02-23 14:50:00,
2013-02-23 09:55:00,29.7,-3.7,30.74,WSW,250,7.0,9.0,23,0.00,CLR,,0.00,WeatherDisplay:10.37,2013-02-23 14:55:00,
2013-02-23 10:00:00,29.5,-3.8,30.74,WSW,250,6.0,9.0,23,0.00,CLR,,0.00,WeatherDisplay:10.37,2013-02-23 15:00:00,
2013-02-23 10:05:00,30.0,-3.4,30.74,WSW,249,3.0,8.0,23,0.00,CLR,,0.00,WeatherDisplay:10.37,2013-02-23 15:05:00,
2013-02-23 10:10:00,30.1,-6.2,30.74,WSW,257,6.0,10.0,20,0.00,CLR,,0.00,WeatherDisplay:10.37,2013-02-23 15:10:00,
2013-02-23 10:15:00,30.3,-6.1,30.74,WSW,257,5.0,7.0,20,0.00,CLR,,0.00,WeatherDisplay:10.37,2013-02-23 15:15:00,
2013-02-23 10:20:00,30.2,-6.1,30.74,WSW,251,6.0,8.0,20,0.00,CLR,,0.00,WeatherDisplay:10.37,2013-02-23 15:20:00,
2013-02-23 10:25:00,30.6,-4.8,30.74,WSW,250,7.0,11.0,21,0.00,CLR,,0.00,WeatherDisplay:10.37,2013-02-23 15:25:00,
2013-02-23 10:35:00,30.7,-5.7,30.74,West,261,5.0,8.0,20,0.00,CLR,,0.00,WeatherDisplay:10.37,2013-02-23 15:35:00,
2013-02-23 10:40:00,30.7,-5.7,30.74,West,269,6.0,9.0,20,0.00,CLR,,0.00,WeatherDisplay:10.37,2013-02-23 15:40:00,
2013-02-23 10:45:00,31.0,-5.5,30.74,West,271,5.0,9.0,20,0.00,CLR,,0.00,WeatherDisplay:10.37,2013-02-23 15:45:00,
2013-02-23 10:50:00,30.6,-5.8,30.74,WNW,291,7.0,9.0,20,0.00,CLR,,0.00,WeatherDisplay:10.37,2013-02-23 15:50:00,
2013-02-23 10:55:00,31.8,-4.8,30.74,WNW,291,6.0,12.0,20,0.00,CLR,,0.00,WeatherDisplay:10.37,2013-02-23 15:55:00,
2013-02-23 11:00:00,30.8,-5.6,30.74,WNW,294,6.0,12.0,20,0.00,CLR,,0.00,WeatherDisplay:10.37,2013-02-23 16:00:00,
2013-02-23 11:05:00,31.2,-5.3,30.74,WNW,286,7.0,9.0,20,0.00,CLR,,0.00,WeatherDisplay:10.37,2013-02-23 16:05:00,
2013-02-23 11:10:00,31.7,-4.9,30.74,West,259,8.0,10.0,20,0.00,CLR,,0.00,WeatherDisplay:10.37,2013-02-23 16:10:00,
2013-02-23 11:15:00,32.2,-4.5,30.74,WSW,251,7.0,13.0,20,0.00,CLR,,0.00,WeatherDisplay:10.37,2013-02-23 16:15:00,
2013-02-23 11:20:00,32.1,-4.6,30.74,West,261,7.0,9.0,20,0.00,CLR,,0.00,WeatherDisplay:10.37,2013-02-23 16:20:00,
2013-02-23 11:25:00,32.6,-4.2,30.74,West,269,6.0,11.0,20,0.00,CLR,,0.00,WeatherDisplay:10.37,2013-02-23 16:25:00,
2013-02-23 11:30:00,32.5,-4.2,30.74,WSW,256,8.0,12.0,20,0.00,CLR,,0.00,WeatherDisplay:10.37,2013-02-23 16:30:00,
2013-02-23 11:35:00,32.1,-4.6,30.74,WSW,248,8.0,12.0,20,0.00,CLR,,0.00,WeatherDisplay:10.37,2013-02-23 16:35:00,
2013-02-23 11:40:00,31.6,-4.9,30.74,WSW,256,7.0,13.0,20,0.00,CLR,,0.00,WeatherDisplay:10.37,2013-02-23 16:40:00,
2013-02-23 11:45:00,32.0,-4.6,30.74,WSW,256,7.0,12.0,20,0.00,CLR,,0.00,WeatherDisplay:10.37,2013-02-23 16:45:00,
2013-02-23 11:50:00,31.7,-4.9,30.74,WSW,253,9.0,13.0,20,0.00,CLR,,0.00,WeatherDisplay:10.37,2013-02-23 16:50:00,
2013-02-23 11:55:00,32.4,-4.3,30.74,WSW,249,7.0,10.0,20,0.00,CLR,,0.00,WeatherDisplay:10.37,2013-02-23 16:55:00,
2013-02-23 12:00:00,33.6,-3.3,30.74,WSW,255,6.0,9.0,20,0.00,CLR,,0.00,WeatherDisplay:10.37,2013-02-23 17:00:00,
2013-02-23 12:05:00,33.4,-3.5,30.74,West,259,7.0,13.0,20,0.00,CLR,,0.00,WeatherDisplay:10.37,2013-02-23 17:05:00,
2013-02-23 12:10:00,32.6,-4.1,30.74,WSW,257,7.0,13.0,20,0.00,CLR,,0.00,WeatherDisplay:10.37,2013-02-23 17:10:00,
2013-02-23 12:15:00,33.0,-3.8,30.74,WSW,254,9.0,12.0,20,0.00,CLR,,0.00,WeatherDisplay:10.37,2013-02-23 17:15:00,
2013-02-23 12:20:00,32.4,-4.3,30.74,WSW,258,5.0,9.0,20,0.00,CLR,,0.00,WeatherDisplay:10.37,2013-02-23 17:20:00,
2013-02-23 12:25:00,33.3,-3.6,30.74,West,262,8.0,11.0,20,0.00,CLR,,0.00,WeatherDisplay:10.37,2013-02-23 17:25:00,
2013-02-23 12:30:00,32.9,-3.9,30.74,WSW,257,7.0,11.0,20,0.00,CLR,,0.00,WeatherDisplay:10.37,2013-02-23 17:30:00,
2013-02-23 12:35:00,31.9,-4.7,30.74,WSW,251,9.0,13.0,20,0.00,CLR,,0.00,WeatherDisplay:10.37,2013-02-23 17:35:00,
2013-02-23 12:40:00,31.7,-4.9,30.74,WSW,255,7.0,11.0,20,0.00,CLR,,0.00,WeatherDisplay:10.37,2013-02-23 17:40:00,
2013-02-23 12:45:00,32.8,-3.9,30.74,WSW,253,8.0,11.0,20,0.00,CLR,,0.00,WeatherDisplay:10.37,2013-02-23 17:45:00,
2013-02-23 12:50:00,32.9,-3.8,30.74,WSW,247,7.0,13.0,20,0.00,CLR,,0.00,WeatherDisplay:10.37,2013-02-23 17:50:00,
2013-02-23 12:55:00,33.1,-3.7,30.74,WSW,242,8.0,10.0,20,0.00,CLR,,0.00,WeatherDisplay:10.37,2013-02-23 17:55:00,
2013-02-23 13:00:00,32.6,-4.1,30.74,WSW,242,7.0,9.0,20,0.00,CLR,,0.00,WeatherDisplay:10.37,2013-02-23 18:00:00,
2013-02-23 13:05:00,31.8,-4.8,30.74,WSW,255,6.0,11.0,20,0.00,CLR,,0.00,WeatherDisplay:10.37,2013-02-23 18:05:00,
2013-02-23 13:10:00,31.9,-4.7,30.74,West,265,6.0,8.0,20,0.00,CLR,,0.00,WeatherDisplay:10.37,2013-02-23 18:10:00,
2013-02-23 13:15:00,31.5,-3.1,30.74,West,268,6.0,8.0,22,0.00,CLR,,0.00,WeatherDisplay:10.37,2013-02-23 18:15:00,
2013-02-23 13:20:00,31.7,-4.9,30.74,West,261,6.0,9.0,20,0.00,CLR,,0.00,WeatherDisplay:10.37,2013-02-23 18:20:00,
2013-02-23 13:25:00,32.3,-4.4,30.74,WSW,253,5.0,11.0,20,0.00,CLR,,0.00,WeatherDisplay:10.37,2013-02-23 18:25:00,
2013-02-23 13:30:00,32.1,-4.6,30.74,WSW,252,7.0,10.0,20,0.00,CLR,,0.00,WeatherDisplay:10.37,2013-02-23 18:30:00,
2013-02-23 13:35:00,32.6,-4.1,30.74,WSW,242,5.0,8.0,20,0.00,CLR,,0.00,WeatherDisplay:10.37,2013-02-23 18:35:00,
2013-02-23 13:40:00,33.1,-3.7,30.74,SW,235,7.0,10.0,20,0.00,CLR,,0.00,WeatherDisplay:10.37,2013-02-23 18:40:00,
2013-02-23 13:45:00,32.4,-4.3,30.74,WSW,253,5.0,10.0,20,0.00,CLR,,0.00,WeatherDisplay:10.37,2013-02-23 18:45:00,
2013-02-23 13:50:00,31.7,-4.8,30.74,West,262,7.0,13.0,20,0.00,CLR,,0.00,WeatherDisplay:10.37,2013-02-23 18:50:00,
2013-02-23 13:55:00,32.4,-4.3,30.74,WSW,252,8.0,12.0,20,0.00,CLR,,0.00,WeatherDisplay:10.37,2013-02-23 18:55:00,
2013-02-23 14:00:00,32.5,-4.2,30.74,WSW,253,7.0,12.0,20,0.00,CLR,,0.00,WeatherDisplay:10.37,2013-02-23 19:00:00,
2013-02-23 14:05:00,32.5,-4.2,30.74,WSW,252,8.0,13.0,20,0.00,CLR,,0.00,WeatherDisplay:10.37,2013-02-23 19:05:00,
2013-02-23 14:10:00,32.4,-4.3,30.74,WSW,249,8.0,10.0,20,0.00,CLR,,0.00,WeatherDisplay:10.37,2013-02-23 19:10:00,
2013-02-23 14:15:00,33.1,-3.7,30.74,WSW,243,9.0,12.0,20,0.00,CLR,,0.00,WeatherDisplay:10.37,2013-02-23 19:15:00,
2013-02-23 14:25:00,33.2,-3.6,0.00,WSW,251,7.0,9.0,20,0.00,CLR,,0.00,WeatherDisplay:10.37,2013-02-23 19:25:00,
2013-02-23 14:30:00,33.8,-3.2,0.00,WSW,245,7.0,13.0,20,0.00,CLR,,0.00,WeatherDisplay:10.37,2013-02-23 19:30:00,
2013-02-23 14:35:00,33.5,-3.4,0.00,WSW,248,5.0,9.0,20,0.00,CLR,,0.00,WeatherDisplay:10.37,2013-02-23 19:35:00,
2013-02-23 14:40:00,32.7,-4.1,0.00,West,259,5.0,10.0,20,0.00,CLR,,0.00,WeatherDisplay:10.37,2013-02-23 19:40:00,
2013-02-23 14:45:00,32.3,-4.4,0.00,West,268,6.0,8.0,20,0.00,CLR,,0.00,WeatherDisplay:10.37,2013-02-23 19:45:00,
2013-02-23 14:50:00,32.6,-4.1,0.00,West,259,7.0,9.0,20,0.00,CLR,,0.00,WeatherDisplay:10.37,2013-02-23 19:50:00,
2013-02-23 14:55:00,32.6,-4.1,0.00,WSW,255,5.0,9.0,20,0.00,CLR,,0.00,WeatherDisplay:10.37,2013-02-23 19:55:00,
2013-02-23 15:00:00,32.5,-4.2,0.00,WSW,253,6.0,13.0,20,0.00,CLR,,0.00,WeatherDisplay:10.37,2013-02-23 20:00:00,
2013-02-23 15:05:00,32.5,-4.2,0.00,WSW,252,7.0,11.0,20,0.00,CLR,,0.00,WeatherDisplay:10.37,2013-02-23 20:05:00,
2013-02-23 15:10:00,32.5,-4.2,0.00,West,268,6.0,8.0,20,0.00,CLR,,0.00,WeatherDisplay:10.37,2013-02-23 20:10:00,
2013-02-23 15:15:00,32.2,-4.5,0.00,WSW,257,6.0,12.0,20,0.00,CLR,,0.00,WeatherDisplay:10.37,2013-02-23 20:15:00,
2013-02-23 15:20:00,32.3,-4.4,0.00,WSW,254,6.0,10.0,20,0.00,CLR,,0.00,WeatherDisplay:10.37,2013-02-23 20:20:00,
2013-02-23 15:25:00,32.4,-4.3,0.00,WSW,256,6.0,8.0,20,0.00,CLR,,0.00,WeatherDisplay:10.37,2013-02-23 20:25:00,
2013-02-23 15:30:00,32.2,-4.5,0.00,WSW,257,7.0,12.0,20,0.00,CLR,,0.00,WeatherDisplay:10.37,2013-02-23 20:30:00,
2013-02-23 15:35:00,32.4,-2.3,0.00,WSW,257,5.0,8.0,22,0.00,CLR,,0.00,WeatherDisplay:10.37,2013-02-23 20:35:00,
2013-02-23 15:40:00,32.2,-4.5,0.00,West,259,7.0,11.0,20,0.00,CLR,,0.00,WeatherDisplay:10.37,2013-02-23 20:40:00,
2013-02-23 15:45:00,32.4,-4.3,0.00,WSW,258,6.0,10.0,20,0.00,CLR,,0.00,WeatherDisplay:10.37,2013-02-23 20:45:00,
2013-02-23 15:50:00,32.2,-4.5,0.00,WSW,255,9.0,13.0,20,0.00,CLR,,0.00,WeatherDisplay:10.37,2013-02-23 20:50:00,
2013-02-23 15:55:00,32.2,-4.5,0.00,WSW,253,8.0,13.0,20,0.00,CLR,,0.00,WeatherDisplay:10.37,2013-02-23 20:55:00,
2013-02-23 16:00:00,32.0,-1.7,0.00,WSW,251,8.0,11.0,23,0.00,CLR,,0.00,WeatherDisplay:10.37,2013-02-23 21:00:00,
2013-02-23 16:05:00,32.0,-2.6,0.00,WSW,251,7.0,12.0,22,0.00,CLR,,0.00,WeatherDisplay:10.37,2013-02-23 21:05:00,
2013-02-23 16:10:00,32.1,-1.6,0.00,WSW,249,6.0,10.0,23,0.00,CLR,,0.00,WeatherDisplay:10.37,2013-02-23 21:10:00,
2013-02-23 16:30:00,31.3,-2.3,0.00,WSW,257,5.0,11.0,23,0.00,CLR,,0.00,WeatherDisplay:10.37,2013-02-23 21:30:00,
2013-02-23 16:35:00,31.2,-2.4,0.00,WSW,254,8.0,10.0,23,0.00,CLR,,0.00,WeatherDisplay:10.37,2013-02-23 21:35:00,
2013-02-23 16:40:00,31.2,-2.4,0.00,West,264,6.0,8.0,23,0.00,CLR,,0.00,WeatherDisplay:10.37,2013-02-23 21:40:00,
2013-02-23 16:45:00,31.1,-2.5,0.00,WSW,258,6.0,9.0,23,0.00,CLR,,0.00,WeatherDisplay:10.37,2013-02-23 21:45:00,
2013-02-23 16:50:00,31.1,-2.5,0.00,WSW,256,6.0,8.0,23,0.00,CLR,,0.00,WeatherDisplay:10.37,2013-02-23 21:50:00,
2013-02-23 16:55:00,30.9,-2.6,0.00,WSW,257,5.0,10.0,23,0.00,CLR,,0.00,WeatherDisplay:10.37,2013-02-23 21:55:00,
2013-02-23 17:00:00,30.9,-2.6,0.00,West,263,5.0,9.0,23,0.00,CLR,,0.00,WeatherDisplay:10.37,2013-02-23 22:00:00,
2013-02-23 17:05:00,30.7,-2.8,0.00,West,270,5.0,10.0,23,0.00,CLR,,0.00,WeatherDisplay:10.37,2013-02-23 22:05:00,
2013-02-23 17:10:00,30.7,-2.8,0.00,West,275,5.0,9.0,23,0.00,CLR,,0.00,WeatherDisplay:10.37,2013-02-23 22:10:00,
2013-02-23 17:15:00,30.7,-2.8,0.00,West,274,5.0,9.0,23,0.00,CLR,,0.00,WeatherDisplay:10.37,2013-02-23 22:15:00,
2013-02-23 17:25:00,30.6,-2.9,0.00,WNW,282,5.0,9.0,23,0.00,CLR,,0.00,WeatherDisplay:10.37,2013-02-23 22:25:00,
2013-02-23 17:30:00,30.5,-3.0,0.00,West,278,5.0,11.0,23,0.00,CLR,,0.00,WeatherDisplay:10.37,2013-02-23 22:30:00,
2013-02-23 17:35:00,30.4,-3.1,0.00,WNW,286,6.0,11.0,23,0.00,CLR,,0.00,WeatherDisplay:10.37,2013-02-23 22:35:00,
2013-02-23 17:40:00,30.2,-3.2,0.00,WNW,283,5.0,10.0,23,0.00,CLR,,0.00,WeatherDisplay:10.37,2013-02-23 22:40:00,
2013-02-23 17:45:00,30.2,-3.2,0.00,WNW,292,5.0,13.0,23,0.00,CLR,,0.00,WeatherDisplay:10.37,2013-02-23 22:45:00,
2013-02-23 17:50:00,30.2,-3.2,0.00,WNW,288,3.0,8.0,23,0.00,CLR,,0.00,WeatherDisplay:10.37,2013-02-23 22:50:00,
2013-02-23 17:55:00,30.2,-3.2,0.00,WNW,283,6.0,8.0,23,0.00,CLR,,0.00,WeatherDisplay:10.37,2013-02-23 22:55:00,
2013-02-23 18:00:00,30.2,-3.2,0.00,WNW,283,3.0,6.0,23,0.00,CLR,,0.00,WeatherDisplay:10.37,2013-02-23 23:00:00,
2013-02-23 18:05:00,30.0,-3.4,0.00,WNW,297,5.0,9.0,23,0.00,CLR,,0.00,WeatherDisplay:10.37,2013-02-23 23:05:00,
2013-02-23 18:10:00,30.0,-3.4,0.00,NW,307,5.0,7.0,23,0.00,CLR,,0.00,WeatherDisplay:10.37,2013-02-23 23:10:00,
2013-02-23 18:15:00,30.0,-3.4,0.00,NW,305,6.0,8.0,23,0.00,CLR,,0.00,WeatherDisplay:10.37,2013-02-23 23:15:00,
2013-02-23 18:20:00,29.8,-3.5,0.00,NW,311,3.0,8.0,23,0.00,CLR,,0.00,WeatherDisplay:10.37,2013-02-23 23:20:00,
2013-02-23 18:25:00,29.8,-3.5,0.00,NW,311,6.0,8.0,23,0.00,CLR,,0.00,WeatherDisplay:10.37,2013-02-23 23:25:00,
2013-02-23 18:30:00,29.7,-3.7,0.00,NW,306,6.0,9.0,23,0.00,CLR,,0.00,WeatherDisplay:10.37,2013-02-23 23:30:00,
2013-02-23 18:35:00,29.5,-3.8,0.00,NW,310,6.0,8.0,23,0.00,CLR,,0.00,WeatherDisplay:10.37,2013-02-23 23:35:00,
2013-02-23 18:40:00,29.5,-3.8,0.00,NW,313,6.0,8.0,23,0.00,CLR,,0.00,WeatherDisplay:10.37,2013-02-23 23:40:00,
2013-02-23 18:45:00,29.5,-3.8,0.00,NW,310,7.0,8.0,23,0.00,CLR,,0.00,WeatherDisplay:10.37,2013-02-23 23:45:00,
2013-02-23 18:50:00,29.5,-3.8,0.00,NW,309,6.0,6.0,23,0.00,CLR,,0.00,WeatherDisplay:10.37,2013-02-23 23:50:00,
2013-02-23 18:55:00,29.4,-3.9,0.00,NW,317,6.0,8.0,23,0.00,CLR,,0.00,WeatherDisplay:10.37,2013-02-23 23:55:00,
2013-02-23 19:00:00,29.3,-4.0,0.00,NW,313,5.0,8.0,23,0.00,CLR,,0.00,WeatherDisplay:10.37,2013-02-24 00:00:00,
2013-02-23 19:05:00,29.3,-4.0,0.00,NW,312,6.0,8.0,23,0.00,CLR,,0.00,WeatherDisplay:10.37,2013-02-24 00:05:00,
2013-02-23 19:10:00,29.3,-4.0,0.00,NW,310,6.0,8.0,23,0.00,CLR,,0.00,WeatherDisplay:10.37,2013-02-24 00:10:00,
2013-02-23 19:15:00,29.1,-4.1,0.00,NW,310,5.0,10.0,23,0.00,CLR,,0.00,WeatherDisplay:10.37,2013-02-24 00:15:00,
2013-02-23 19:20:00,29.1,-4.1,0.00,NW,314,3.0,10.0,23,0.00,CLR,,0.00,WeatherDisplay:10.37,2013-02-24 00:20:00,
2013-02-23 19:25:00,29.1,-4.1,0.00,NW,309,5.0,6.0,23,0.00,CLR,,0.00,WeatherDisplay:10.37,2013-02-24 00:25:00,
2013-02-23 19:30:00,29.1,-4.1,0.00,NW,307,6.0,8.0,23,0.00,CLR,,0.00,WeatherDisplay:10.37,2013-02-24 00:30:00,
2013-02-23 19:35:00,29.1,-4.1,0.00,NW,312,6.0,11.0,23,0.00,CLR,,0.00,WeatherDisplay:10.37,2013-02-24 00:35:00,
2013-02-23 19:40:00,28.9,-4.3,0.00,NW,310,7.0,8.0,23,0.00,CLR,,0.00,WeatherDisplay:10.37,2013-02-24 00:40:00,
2013-02-23 19:45:00,28.8,-4.5,0.00,NW,311,5.0,8.0,23,0.00,CLR,,0.00,WeatherDisplay:10.37,2013-02-24 00:45:00,
2013-02-23 19:50:00,28.6,-4.6,0.00,NW,317,6.0,10.0,23,0.00,CLR,,0.00,WeatherDisplay:10.37,2013-02-24 00:50:00,
2013-02-23 19:55:00,28.6,-4.6,0.00,NW,319,6.0,8.0,23,0.00,CLR,,0.00,WeatherDisplay:10.37,2013-02-24 00:55:00,
2013-02-23 20:00:00,28.5,-4.7,0.00,NW,320,3.0,8.0,23,0.00,CLR,,0.00,WeatherDisplay:10.37,2013-02-24 01:00:00,
2013-02-23 20:05:00,28.4,-4.8,0.00,NW,315,5.0,6.0,23,0.00,CLR,,0.00,WeatherDisplay:10.37,2013-02-24 01:05:00,
2013-02-23 20:10:00,28.3,-4.8,0.00,NW,313,5.0,8.0,23,0.00,CLR,,0.00,WeatherDisplay:10.37,2013-02-24 01:10:00,
2013-02-23 20:15:00,28.2,-4.9,0.00,NW,315,7.0,8.0,23,0.00,CLR,,0.00,WeatherDisplay:10.37,2013-02-24 01:15:00,
2013-02-23 20:20:00,28.0,-5.1,0.00,NW,315,6.0,8.0,23,0.00,CLR,,0.00,WeatherDisplay:10.37,2013-02-24 01:20:00,
2013-02-23 20:25:00,28.0,-5.1,0.00,NW,315,6.0,8.0,23,0.00,CLR,,0.00,WeatherDisplay:10.37,2013-02-24 01:25:00,
2013-02-23 20:30:00,27.9,-5.2,0.00,NW,312,6.0,8.0,23,0.00,CLR,,0.00,WeatherDisplay:10.37,2013-02-24 01:30:00,
2013-02-23 20:35:00,27.9,-5.2,0.00,NW,314,6.0,8.0,23,0.00,CLR,,0.00,WeatherDisplay:10.37,2013-02-24 01:35:00,
2013-02-23 20:40:00,27.8,-5.2,0.00,NW,312,6.0,8.0,23,0.00,CLR,,0.00,WeatherDisplay:10.37,2013-02-24 01:40:00,
2013-02-23 20:45:00,27.9,-5.2,0.00,NW,312,6.0,6.0,23,0.00,CLR,,0.00,WeatherDisplay:10.37,2013-02-24 01:45:00,
2013-02-23 20:50:00,27.7,-5.4,0.00,NW,321,7.0,8.0,23,0.00,CLR,,0.00,WeatherDisplay:10.37,2013-02-24 01:50:00,
2013-02-23 20:55:00,27.7,-5.4,0.00,NW,321,6.0,8.0,23,0.00,CLR,,0.00,WeatherDisplay:10.37,2013-02-24 01:55:00,
2013-02-23 21:00:00,27.5,-5.5,0.00,NW,318,6.0,9.0,23,0.00,CLR,,0.00,WeatherDisplay:10.37,2013-02-24 02:00:00,
2013-02-23 21:05:00,27.5,-5.5,0.00,NW,315,6.0,8.0,23,0.00,CLR,,0.00,WeatherDisplay:10.37,2013-02-24 02:05:00,
2013-02-23 21:10:00,27.5,-5.5,0.00,NW,314,7.0,9.0,23,0.00,CLR,,0.00,WeatherDisplay:10.37,2013-02-24 02:10:00,
2013-02-23 21:20:00,27.5,-5.5,0.00,NW,310,6.0,9.0,23,0.00,CLR,,0.00,WeatherDisplay:10.37,2013-02-24 02:20:00,
2013-02-23 21:25:00,27.5,-5.5,0.00,NW,307,7.0,8.0,23,0.00,CLR,,0.00,WeatherDisplay:10.37,2013-02-24 02:25:00,
2013-02-23 21:30:00,27.3,-5.7,0.00,NW,309,6.0,8.0,23,0.00,CLR,,0.00,WeatherDisplay:10.37,2013-02-24 02:30:00,
2013-02-23 21:35:00,27.3,-5.7,0.00,NW,309,6.0,9.0,23,0.00,CLR,,0.00,WeatherDisplay:10.37,2013-02-24 02:35:00,
2013-02-23 21:40:00,27.3,-5.7,0.00,NW,310,6.0,9.0,23,0.00,CLR,,0.00,WeatherDisplay:10.37,2013-02-24 02:40:00,
2013-02-23 21:45:00,27.3,-5.7,0.00,NW,312,7.0,9.0,23,0.00,CLR,,0.00,WeatherDisplay:10.37,2013-02-24 02:45:00,
2013-02-23 21:50:00,27.1,-5.8,0.00,NW,315,7.0,12.0,23,0.00,CLR,,0.00,WeatherDisplay:10.37,2013-02-24 02:50:00,
2013-02-23 21:55:00,27.0,-6.0,0.00,NW,321,6.0,12.0,23,0.00,CLR,,0.00,WeatherDisplay:10.37,2013-02-24 02:55:00,
2013-02-23 22:00:00,27.0,-6.0,0.00,NW,321,7.0,9.0,23,0.00,CLR,,0.00,WeatherDisplay:10.37,2013-02-24 03:00:00,
2013-02-23 22:05:00,27.0,-6.0,0.00,NW,310,8.0,10.0,23,0.00,CLR,,0.00,WeatherDisplay:10.37,2013-02-24 03:05:00,
2013-02-23 22:10:00,27.0,-6.0,0.00,NW,313,5.0,13.0,23,0.00,CLR,,0.00,WeatherDisplay:10.37,2013-02-24 03:10:00,
2013-02-23 22:15:00,27.0,-6.0,0.00,NW,314,3.0,8.0,23,0.00,CLR,,0.00,WeatherDisplay:10.37,2013-02-24 03:15:00,
2013-02-23 22:20:00,27.0,-6.0,0.00,NW,306,5.0,8.0,23,0.00,CLR,,0.00,WeatherDisplay:10.37,2013-02-24 03:20:00,
2013-02-23 22:25:00,27.0,-3.4,0.00,NW,309,6.0,6.0,26,0.00,CLR,,0.00,WeatherDisplay:10.37,2013-02-24 03:25:00,
2013-02-23 22:30:00,26.8,-6.1,0.00,NW,313,5.0,8.0,23,0.00,CLR,,0.00,WeatherDisplay:10.37,2013-02-24 03:30:00,
2013-02-23 22:35:00,26.8,-6.1,0.00,NW,313,6.0,9.0,23,0.00,CLR,,0.00,WeatherDisplay:10.37,2013-02-24 03:35:00,
2013-02-23 22:40:00,26.8,-3.6,0.00,NW,312,5.0,9.0,26,0.00,CLR,,0.00,WeatherDisplay:10.37,2013-02-24 03:40:00,
2013-02-23 22:45:00,26.8,-3.6,0.00,NW,309,5.0,8.0,26,0.00,CLR,,0.00,WeatherDisplay:10.37,2013-02-24 03:45:00,
2013-02-23 22:50:00,26.8,-5.3,0.00,NW,313,7.0,9.0,24,0.00,CLR,,0.00,WeatherDisplay:10.37,2013-02-24 03:50:00,
2013-02-23 22:55:00,26.8,-3.6,0.00,NW,316,7.0,9.0,26,0.00,CLR,,0.00,WeatherDisplay:10.37,2013-02-24 03:55:00,
2013-02-23 23:00:00,26.8,-3.6,0.00,NW,312,6.0,12.0,26,0.00,CLR,,0.00,WeatherDisplay:10.37,2013-02-24 04:00:00,
2013-02-23 23:05:00,26.8,-3.6,0.00,NW,312,5.0,8.0,26,0.00,CLR,,0.00,WeatherDisplay:10.37,2013-02-24 04:05:00,
2013-02-23 23:10:00,26.8,-3.6,0.00,NW,313,6.0,9.0,26,0.00,CLR,,0.00,WeatherDisplay:10.37,2013-02-24 04:10:00,
2013-02-23 23:15:00,26.8,-3.6,0.00,NW,313,6.0,8.0,26,0.00,CLR,,0.00,WeatherDisplay:10.37,2013-02-24 04:15:00,
2013-02-23 23:20:00,26.6,-3.7,0.00,NW,318,6.0,9.0,26,0.00,CLR,,0.00,WeatherDisplay:10.37,2013-02-24 04:20:00,
2013-02-23 23:25:00,26.6,-3.7,0.00,NW,318,6.0,9.0,26,0.00,CLR,,0.00,WeatherDisplay:10.37,2013-02-24 04:25:00,
2013-02-23 23:30:00,26.6,-3.7,0.00,NW,313,6.0,8.0,26,0.00,CLR,,0.00,WeatherDisplay:10.37,2013-02-24 04:30:00,
2013-02-23 23:35:00,26.4,-3.9,0.00,NW,313,7.0,8.0,26,0.00,CLR,,0.00,WeatherDisplay:10.37,2013-02-24 04:35:00,
2013-02-23 23:40:00,26.2,-4.1,0.00,NW,312,7.0,11.0,26,0.00,CLR,,0.00,WeatherDisplay:10.37,2013-02-24 04:40:00,
2013-02-23 23:45:00,26.2,-4.1,0.00,NW,317,7.0,9.0,26,0.00,CLR,,0.00,WeatherDisplay:10.37,2013-02-24 04:45:00,
2013-02-23 23:50:00,26.2,-4.1,0.00,NW,315,7.0,8.0,26,0.00,CLR,,0.00,WeatherDisplay:10.37,2013-02-24 04:50:00,
2013-02-23 23:55:00,26.1,-4.2,0.00,NW,305,5.0,8.0,26,0.00,CLR,,0.00,WeatherDisplay:10.37,2013-02-24 04:55:00,